period_start,C,m1,H,J0,J1,J2,J3,J4,J5,JA,JB,JC,JD,JJ,JK,JN,#
2016-04-03 00:01:55,0.14,0.60,0.00,12.36,17.29,21.33,15.15,50.02,1014.66,2075.00,3348.91,3037.67,3445.02,599.97,617.03,4.80,0000 0000 0000 0000 000000
2016-04-03 00:06:56,0.15,0.60,0.00,12.40,17.32,21.33,15.18,49.98,1014.66,2075.00,3345.65,3035.50,3442.58,599.92,616.87,4.85,0000 0000 0000 0000 000000
2016-04-03 00:11:57,0.20,0.61,0.00,12.42,17.34,21.36,15.20,50.11,1014.66,2075.00,3341.66,3032.65,3439.44,599.74,616.67,4.90,0000 0000 0000 0000 000000
2016-04-03 00:16:59,0.58,0.64,0.00,12.40,17.36,21.37,15.15,50.09,1014.63,2074.99,3332.11,3025.33,3431.41,599.79,616.74,4.95,0000 0000 0000 0000 000000
2016-04-03 00:22:00,0.63,0.66,0.00,12.40,17.38,21.41,15.17,50.18,1014.50,2074.98,3319.40,3015.57,3420.64,600.01,616.93,5.00,0000 0000 0000 0000 000000
2016-04-03 00:27:02,0.55,0.69,0.00,12.47,17.40,21.44,15.22,50.19,1014.47,2074.96,3308.08,3006.95,3411.01,600.07,616.75,5.05,0000 0000 0000 0000 000000
2016-04-03 00:32:03,0.61,0.72,0.00,12.50,17.43,21.43,15.22,50.28,1014.47,2074.85,3295.88,2997.74,3400.87,600.14,616.78,5.10,0000 0000 0000 0000 000000
2016-04-03 00:37:05,0.53,0.75,0.00,12.48,17.45,21.45,15.17,50.37,1014.41,2074.43,3283.82,2988.66,3391.06,599.93,616.62,5.15,0000 0000 0000 0000 000000
2016-04-03 00:42:06,0.43,0.78,0.00,12.48,17.47,21.48,15.13,50.36,1014.25,2074.18,3274.32,2981.58,3383.42,599.81,616.41,5.20,0000 0000 0000 0000 000000
2016-04-03 00:47:07,0.28,0.79,0.00,12.55,17.49,21.54,15.21,50.41,1014.20,2074.07,3267.64,2976.84,3378.23,600.22,616.59,5.25,0000 0000 0000 0000 000000
2016-04-03 00:52:08,0.26,0.81,0.00,12.60,17.51,21.55,15.20,50.35,1014.19,2074.05,3262.22,2972.89,3373.81,600.07,616.32,5.30,0000 0000 0000 0000 000000
2016-04-03 00:57:09,0.21,0.82,0.00,12.59,17.52,21.52,15.16,50.35,1014.18,2074.01,3257.70,2969.56,3370.02,600.01,616.34,5.35,0000 0000 0000 0000 000000
2016-04-03 01:02:11,0.20,0.83,0.00,12.59,17.54,21.59,15.15,50.27,1014.18,2074.01,3253.36,2966.51,3366.64,600.03,616.31,5.40,0000 0000 0000 0000 000000
2016-04-03 01:07:12,0.18,0.84,0.00,12.66,17.56,21.60,15.15,50.22,1014.18,2074.00,3249.53,2963.73,3363.48,600.31,616.44,5.45,0000 0000 0000 0000 000000
2016-04-03 01:12:14,0.16,0.85,0.00,12.70,17.58,21.61,15.12,50.41,1014.17,2074.00,3246.12,2961.37,3360.76,599.38,615.36,5.50,0000 0000 0000 0000 000000
2016-04-03 01:17:15,0.17,0.86,0.00,12.71,17.61,21.64,15.17,50.21,1014.17,2074.00,3242.86,2959.00,3358.03,599.94,615.96,5.55,0000 0000 0000 0000 000000
2016-04-03 01:22:16,0.19,0.87,0.00,12.71,17.64,21.67,15.13,50.22,1014.17,2073.98,3239.14,2956.15,3354.72,600.14,616.03,5.60,0000 0000 0000 0000 000000
2016-04-03 01:27:18,0.20,0.88,0.00,12.79,17.68,21.68,15.10,50.13,1014.17,2073.96,3235.13,2953.24,3351.45,599.68,615.46,5.65,0000 0000 0000 0000 000000
2016-04-03 01:32:19,0.19,0.89,0.00,12.88,17.71,21.70,15.21,50.25,1014.16,2073.75,3230.88,2950.11,3347.99,600.17,615.99,5.70,0000 0000 0000 0000 000000
2016-04-03 01:37:20,0.20,0.89,0.00,12.94,17.74,21.74,15.18,50.23,1014.13,2073.25,3226.09,2946.69,3344.11,599.94,615.51,5.75,0000 0000 0000 0000 000000
2016-04-03 01:42:21,0.22,0.91,0.00,12.93,17.78,21.78,15.16,50.20,1014.12,2073.04,3221.28,2943.22,3340.15,600.19,615.69,5.80,0000 0000 0000 0000 000000
2016-04-03 01:47:22,0.22,0.92,0.00,12.95,17.81,21.80,15.19,50.33,1014.08,2073.01,3216.64,2939.89,3336.40,600.14,615.65,5.85,0000 0000 0000 0000 000000
2016-04-03 01:52:24,0.22,0.93,0.00,13.02,17.85,21.86,15.16,50.54,1014.12,2073.00,3212.08,2936.57,3332.67,599.96,615.25,5.90,0000 0000 0000 0000 000000
2016-04-03 01:57:25,0.20,0.94,0.00,13.08,17.89,21.90,15.13,50.22,1014.14,2072.99,3207.91,2933.48,3329.18,600.23,615.32,5.95,0000 0000 0000 0000 000000
2016-04-03 02:02:27,0.20,0.95,0.00,13.10,17.93,21.89,15.13,50.34,1014.04,2072.98,3203.82,2930.55,3325.96,600.07,615.18,6.00,0000 0000 0000 0000 000000
2016-04-03 02:07:29,0.19,0.96,0.00,13.13,17.97,21.90,15.06,50.41,1013.98,2072.95,3199.86,2927.65,3322.70,599.79,614.71,6.05,0000 0000 0000 0000 000000
2016-04-03 02:12:30,0.17,0.97,0.00,13.21,18.02,21.98,15.13,50.45,1013.96,2072.66,3195.73,2924.65,3319.36,599.92,614.71,6.10,0000 0000 0000 0000 000000
2016-04-03 02:17:32,0.18,0.98,0.00,13.27,18.06,22.00,15.14,50.47,1013.87,2072.17,3191.38,2921.47,3315.81,600.04,614.66,6.15,0000 0000 0000 0000 000000
2016-04-03 02:22:33,0.21,0.99,0.00,13.27,18.11,22.01,15.04,50.53,1013.74,2072.02,3186.98,2918.17,3312.12,599.81,614.41,6.20,0000 0000 0000 0000 000000
2016-04-03 02:27:34,0.25,1.00,0.00,13.31,18.16,22.04,15.04,50.58,1013.73,2072.00,3182.32,2914.72,3308.18,599.96,614.42,6.26,0000 0000 0000 0000 000000
2016-04-03 02:32:36,0.22,1.02,0.00,13.38,18.21,22.15,15.10,50.54,1013.72,2071.98,3177.84,2911.49,3304.56,599.71,613.99,6.31,0000 0000 0000 0000 000000
2016-04-03 02:37:37,0.20,1.03,0.00,13.43,18.26,22.18,15.07,50.57,1013.70,2071.94,3173.71,2908.45,3301.15,599.91,614.15,6.36,0000 0000 0000 0000 000000
2016-04-03 02:42:38,0.16,1.04,0.00,13.45,18.31,22.25,15.09,50.63,1013.69,2071.56,3169.57,2905.40,3297.71,599.87,613.98,6.41,0000 0000 0000 0000 000000
2016-04-03 02:47:40,0.20,1.04,0.00,13.50,18.35,22.28,15.09,50.66,1013.69,2071.06,3165.10,2902.18,3294.01,599.83,613.71,6.46,0000 0000 0000 0000 000000
2016-04-03 02:52:41,0.25,1.06,0.00,13.56,18.40,22.37,15.09,50.46,1013.69,2071.00,3160.23,2898.66,3290.05,600.27,614.30,6.51,0000 0000 0000 0000 000000
2016-04-03 02:57:43,0.28,1.07,0.00,13.57,18.44,22.40,15.13,50.60,1013.69,2071.00,3154.90,2894.83,3285.74,600.10,613.97,6.56,0000 0000 0000 0000 000000
2016-04-03 03:02:44,0.35,1.09,0.00,13.59,18.49,22.42,15.12,50.51,1013.69,2070.96,3148.02,2889.98,3280.31,600.04,613.92,6.61,0000 0000 0000 0000 000000
2016-04-03 03:07:46,0.22,1.10,0.00,13.66,18.53,22.49,15.14,50.57,1013.69,2070.78,3142.79,2886.26,3276.08,600.09,613.77,6.66,0000 0000 0000 0000 000000
2016-04-03 03:12:47,0.18,1.11,0.00,13.70,18.57,22.53,15.09,50.53,1013.68,2070.20,3138.11,2882.93,3272.34,600.08,613.67,6.71,0000 0000 0000 0000 000000
2016-04-03 03:17:48,0.22,1.12,0.00,13.71,18.60,22.56,15.14,50.53,1013.65,2070.03,3133.65,2879.77,3268.64,600.18,613.68,6.76,0000 0000 0000 0000 000000
2016-04-03 03:22:50,0.25,1.13,0.00,13.77,18.64,22.58,15.04,50.49,1013.63,2070.00,3128.72,2876.42,3264.76,599.85,613.21,6.81,0000 0000 0000 0000 000000
2016-04-03 03:27:51,0.23,1.15,0.00,13.85,18.68,22.60,15.04,50.44,1013.62,2069.99,3124.11,2873.14,3261.19,600.03,613.36,6.86,0000 0000 0000 0000 000000
2016-04-03 03:32:53,0.22,1.16,0.00,13.88,18.72,22.61,15.09,50.42,1013.53,2069.92,3119.61,2869.99,3257.65,599.85,612.96,6.91,0000 0000 0000 0000 000000
2016-04-03 03:37:54,0.17,1.17,0.00,13.87,18.76,22.70,14.99,50.42,1013.36,2069.66,3115.51,2867.04,3254.28,599.67,612.71,6.96,0000 0000 0000 0000 000000
2016-04-03 03:42:55,0.17,1.17,0.00,13.95,18.80,22.71,15.10,50.38,1013.30,2069.13,3111.37,2864.10,3250.91,599.68,612.52,7.01,0000 0000 0000 0000 000000
2016-04-03 03:47:57,0.24,1.19,0.00,14.04,18.83,22.82,15.07,50.33,1013.28,2069.02,3106.78,2860.90,3247.25,599.99,612.63,7.06,0000 0000 0000 0000 000000
2016-04-03 03:52:58,0.21,1.20,0.00,14.08,18.87,22.81,15.09,50.33,1013.22,2069.00,3102.37,2857.81,3243.78,600.12,612.65,7.11,0000 0000 0000 0000 000000
2016-04-03 03:57:59,0.21,1.21,0.00,14.09,18.91,22.85,15.01,50.35,1013.20,2069.00,3098.41,2855.00,3240.59,600.02,612.47,7.16,0000 0000 0000 0000 000000
2016-04-03 04:03:01,0.22,1.22,0.00,14.16,18.94,22.89,15.02,50.31,1013.20,2068.98,3094.31,2852.08,3237.29,599.69,612.13,7.21,0000 0000 0000 0000 000000
2016-04-03 04:08:02,0.22,1.23,0.00,14.24,18.98,22.97,15.06,50.33,1013.20,2068.92,3089.87,2848.97,3233.70,599.86,611.90,7.26,0000 0000 0000 0000 000000
2016-04-03 04:13:04,0.23,1.24,0.00,14.26,19.02,23.00,14.93,50.23,1013.20,2068.48,3084.61,2845.33,3229.61,599.67,611.76,7.31,0000 0000 0000 0000 000000
2016-04-03 04:18:05,0.19,1.25,0.00,14.24,19.06,23.05,15.09,50.30,1013.20,2068.09,3080.18,2842.06,3225.99,599.88,612.07,7.36,0000 0000 0000 0000 000000
2016-04-03 04:23:06,0.17,1.26,0.00,14.29,19.10,23.11,15.13,50.43,1013.20,2068.01,3076.72,2839.52,3223.10,600.45,612.46,7.41,0000 0000 0000 0000 000000
2016-04-03 04:28:07,0.19,1.27,0.00,14.35,19.15,23.15,15.03,50.34,1013.19,2068.00,3073.14,2836.92,3220.12,599.67,611.64,7.46,0000 0000 0000 0000 000000
2016-04-03 04:33:08,0.18,1.28,0.00,14.38,19.19,23.16,14.94,50.26,1013.19,2067.99,3069.64,2834.35,3217.15,599.73,611.56,7.51,0000 0000 0000 0000 000000
2016-04-03 04:38:10,0.15,1.29,0.00,14.39,19.23,23.19,15.09,50.31,1013.16,2067.77,3066.17,2831.81,3214.27,600.18,612.00,7.56,0000 0000 0000 0000 000000
2016-04-03 04:43:11,0.12,1.29,0.00,14.41,19.28,23.22,15.05,50.33,1013.11,2067.18,3062.77,2829.36,3211.44,600.08,611.91,7.61,0000 0000 0000 0000 000000
2016-04-03 04:48:12,0.17,1.30,0.00,14.49,19.32,23.20,15.07,50.38,1013.16,2067.04,3059.44,2827.00,3208.73,599.99,611.47,7.66,0000 0000 0000 0000 000000
2016-04-03 04:53:14,0.16,1.31,0.00,14.50,19.36,23.24,15.12,50.42,1013.10,2067.01,3056.30,2824.65,3206.11,600.22,611.68,7.71,0000 0000 0000 0000 000000
2016-04-03 04:58:15,0.16,1.32,0.00,14.50,19.40,23.22,15.07,50.47,1013.06,2067.00,3053.17,2822.41,3203.49,600.06,611.46,7.76,0000 0000 0000 0000 000000
2016-04-03 05:03:17,0.15,1.33,0.00,14.56,19.44,23.29,15.05,50.43,1013.06,2066.96,3050.18,2820.24,3201.02,600.16,611.45,7.81,0000 0000 0000 0000 000000
2016-04-03 05:08:18,0.14,1.34,0.00,14.64,19.48,23.35,15.06,50.47,1012.98,2066.92,3047.28,2818.17,3198.73,600.08,611.24,7.86,0000 0000 0000 0000 000000
2016-04-03 05:13:19,0.09,1.34,0.00,14.64,19.52,23.43,14.99,50.42,1012.92,2066.47,3044.46,2816.17,3196.38,599.96,611.08,7.91,0000 0000 0000 0000 000000
2016-04-03 05:18:20,0.13,1.35,0.00,14.62,19.55,23.44,14.92,50.31,1012.90,2066.06,3041.53,2814.11,3194.00,599.65,610.89,7.96,0000 0000 0000 0000 000000
2016-04-03 05:23:21,0.15,1.36,0.00,14.67,19.59,23.48,15.05,50.37,1012.98,2066.01,3038.68,2812.07,3191.61,600.04,611.07,8.01,0000 0000 0000 0000 000000
2016-04-03 05:28:22,0.15,1.36,0.00,14.74,19.63,23.50,15.06,50.40,1012.98,2066.00,3035.77,2810.00,3189.23,599.85,610.78,8.06,0000 0000 0000 0000 000000
2016-04-03 05:33:24,0.15,1.37,0.00,14.76,19.66,23.51,15.03,50.52,1012.84,2065.98,3032.86,2807.89,3186.81,600.34,611.16,8.11,0000 0000 0000 0000 000000
2016-04-03 05:38:25,0.15,1.38,0.00,14.74,19.69,23.51,15.01,50.40,1012.81,2065.96,3029.95,2805.81,3184.44,600.18,611.13,8.16,0000 0000 0000 0000 000000
2016-04-03 05:43:27,0.12,1.39,0.00,14.74,19.72,23.59,15.09,50.35,1012.83,2065.67,3027.09,2803.76,3182.13,600.02,610.87,8.21,0000 0000 0000 0000 000000
2016-04-03 05:48:28,0.10,1.39,0.00,14.81,19.75,23.63,14.96,50.40,1012.89,2065.26,3024.37,2801.78,3179.90,599.65,610.38,8.26,0000 0000 0000 0000 000000
2016-04-03 05:53:29,0.14,1.40,0.00,14.87,19.79,23.64,15.03,50.44,1012.80,2065.09,3021.62,2799.81,3177.59,600.03,610.69,8.31,0000 0000 0000 0000 000000
2016-04-03 05:58:30,0.15,1.41,0.00,14.87,19.83,23.66,14.92,50.54,1012.73,2065.02,3018.80,2797.78,3175.23,599.57,610.13,8.36,0000 0000 0000 0000 000000
2016-04-03 06:03:31,0.15,1.41,0.00,14.89,19.86,23.68,15.07,50.56,1012.72,2065.00,3016.04,2795.77,3172.97,599.78,610.19,8.41,0000 0000 0000 0000 000000
2016-04-03 06:08:33,0.15,1.42,0.00,14.95,19.90,23.73,15.01,50.51,1012.71,2065.00,3013.21,2793.77,3170.68,600.14,610.49,8.47,0000 0000 0000 0000 000000
2016-04-03 06:13:34,0.14,1.43,0.00,15.02,19.93,23.75,15.00,50.43,1012.71,2064.99,3010.44,2791.76,3168.37,600.07,610.20,8.52,0000 0000 0000 0000 000000
2016-04-03 06:18:36,0.14,1.44,0.00,15.01,19.97,23.81,15.02,50.47,1012.71,2064.90,3007.75,2789.75,3166.05,599.97,610.15,8.57,0000 0000 0000 0000 000000
2016-04-03 06:23:37,0.09,1.44,0.00,15.00,20.00,23.84,15.02,50.50,1012.71,2064.34,3004.89,2787.63,3163.61,600.38,610.71,8.62,0000 0000 0000 0000 000000
2016-04-03 06:28:38,0.13,1.45,0.00,15.05,20.03,23.82,15.02,50.36,1012.71,2064.08,3002.14,2785.65,3161.36,600.24,610.38,8.67,0000 0000 0000 0000 000000
2016-04-03 06:33:39,0.14,1.46,0.00,15.10,20.07,23.83,15.00,50.40,1012.72,2064.03,2999.36,2783.74,3159.09,599.95,609.96,8.72,0000 0000 0000 0000 000000
2016-04-03 06:38:40,0.15,1.46,0.00,15.17,20.10,23.88,15.05,50.38,1012.72,2064.01,2996.53,2781.66,3156.82,600.23,610.21,8.77,0000 0000 0000 0000 000000
2016-04-03 06:43:41,0.15,1.47,0.00,15.16,20.13,23.88,14.97,50.38,1012.74,2064.00,2993.63,2779.57,3154.40,600.01,609.93,8.82,0000 0000 0000 0000 000000
2016-04-03 06:48:42,0.16,1.48,0.00,15.18,20.16,23.91,15.08,50.44,1012.83,2063.98,2990.67,2777.47,3152.05,599.91,609.75,8.87,0000 0000 0000 0000 000000
2016-04-03 06:53:44,0.15,1.49,0.00,15.20,20.19,23.97,14.96,50.37,1012.94,2063.98,2987.78,2775.44,3149.69,599.85,609.91,8.92,0000 0000 0000 0000 000000
2016-04-03 06:58:45,0.14,1.49,0.00,15.27,20.22,24.04,15.07,50.41,1012.94,2063.81,2984.86,2773.31,3147.27,600.01,609.73,8.97,0000 0000 0000 0000 000000
2016-04-03 07:03:47,0.11,1.50,0.00,15.29,20.26,24.05,15.09,50.52,1013.00,2063.41,2981.97,2771.24,3144.97,600.51,610.38,9.02,0000 0000 0000 0000 000000
2016-04-03 07:08:48,0.14,1.51,0.00,15.28,20.29,24.05,14.99,50.45,1013.08,2063.05,2979.06,2769.13,3142.50,599.91,609.77,9.07,0000 0000 0000 0000 000000
2016-04-03 07:13:49,0.16,1.51,0.00,15.30,20.33,24.02,14.86,50.24,1013.12,2063.00,2976.21,2767.08,3140.17,599.40,609.17,9.12,0000 0000 0000 0000 000000
2016-04-03 07:18:50,0.15,1.52,0.00,15.37,20.36,24.05,15.00,50.39,1013.16,2063.00,2973.50,2765.03,3137.75,599.84,609.51,9.17,0000 0000 0000 0000 000000
2016-04-03 07:23:51,0.17,1.53,0.00,15.46,20.40,24.08,14.98,50.35,1013.19,2063.00,2970.34,2762.81,3135.34,600.02,609.63,9.22,0000 0000 0000 0000 000000
2016-04-03 07:28:53,0.16,1.54,0.00,15.44,20.43,24.15,15.01,50.46,1013.16,2062.98,2967.26,2760.68,3133.02,599.84,609.42,9.27,0000 0000 0000 0000 000000
2016-04-03 07:33:54,0.15,1.55,0.00,15.42,20.46,24.23,14.95,50.30,1013.10,2062.87,2964.18,2758.46,3130.45,600.04,609.62,9.32,0000 0000 0000 0000 000000
2016-04-03 07:38:55,0.17,1.56,0.00,15.41,20.48,24.26,15.00,50.27,1013.10,2062.58,2960.66,2755.99,3127.63,599.85,609.45,9.37,0000 0000 0000 0000 000000
2016-04-03 07:43:57,0.18,1.56,0.00,15.48,20.50,24.36,15.07,50.48,1013.10,2062.11,2956.43,2753.14,3124.46,600.29,609.70,9.42,0000 0000 0000 0000 000000
2016-04-03 07:48:58,0.29,1.58,0.00,15.57,20.52,24.32,14.94,50.30,1013.02,2062.02,2951.06,2749.69,3120.37,599.79,609.00,9.47,0000 0000 0000 0000 000000
2016-04-03 07:53:59,0.28,1.59,0.00,15.58,20.54,24.38,14.99,50.31,1012.99,2062.00,2945.57,2746.11,3116.27,600.07,609.17,9.52,0000 0000 0000 0000 000000
2016-04-03 07:59:00,0.28,1.61,0.00,15.58,20.54,24.29,14.95,50.28,1012.98,2062.00,2940.50,2742.63,3112.31,599.70,608.93,9.57,0000 0000 0000 0000 000000
2016-04-03 08:04:01,0.22,1.62,0.00,15.60,20.57,24.33,15.01,50.23,1012.96,2062.00,2936.12,2739.63,3108.98,599.98,609.13,9.62,0000 0000 0000 0000 000000
2016-04-03 08:09:02,0.21,1.63,0.00,15.63,20.58,24.25,15.01,50.18,1013.01,2061.99,2932.12,2736.99,3105.94,600.06,609.08,9.67,0000 0000 0000 0000 000000
2016-04-03 08:14:03,0.24,1.64,0.00,15.72,20.60,24.38,15.01,50.13,1012.96,2061.98,2927.78,2734.09,3102.64,600.13,609.03,9.72,0000 0000 0000 0000 000000
2016-04-03 08:19:05,0.22,1.65,0.00,15.74,20.62,24.46,15.02,50.10,1013.04,2061.96,2923.59,2731.20,3099.38,600.04,608.89,9.77,0000 0000 0000 0000 000000
2016-04-03 08:24:07,0.17,1.66,0.00,15.75,20.64,24.56,15.04,50.17,1013.13,2061.89,2920.06,2728.76,3096.56,600.05,608.98,9.82,0000 0000 0000 0000 000000
2016-04-03 08:29:08,0.16,1.67,0.00,15.82,20.67,24.73,14.95,50.22,1013.16,2061.55,2916.59,2726.30,3093.79,599.76,608.54,9.87,0000 0000 0000 0000 000000
2016-04-03 08:34:09,0.16,1.68,0.00,15.84,20.69,24.86,14.98,50.17,1013.18,2061.21,2913.01,2723.85,3090.99,600.26,609.12,9.92,0000 0000 0000 0000 000000
2016-04-03 08:39:10,0.19,1.69,0.00,15.92,20.72,24.88,14.97,50.25,1013.20,2061.03,2909.32,2721.31,3088.09,600.10,608.67,9.97,0000 0000 0000 0000 000000
2016-04-03 08:44:12,0.20,1.70,0.00,15.98,20.74,24.81,14.95,50.20,1013.20,2061.00,2905.66,2718.71,3085.17,599.86,608.32,10.02,0000 0000 0000 0000 000000
2016-04-03 08:49:13,0.19,1.71,0.00,15.98,20.78,24.82,15.00,50.13,1013.20,2061.00,2902.21,2716.23,3082.33,600.08,608.61,10.07,0000 0000 0000 0000 000000
2016-04-03 08:54:14,0.20,1.72,0.00,15.99,20.81,24.90,15.01,50.08,1013.20,2060.99,2898.50,2713.68,3079.41,599.97,608.43,10.12,0000 0000 0000 0000 000000
2016-04-03 08:59:16,0.22,1.73,0.00,15.98,20.85,25.02,15.04,50.11,1013.20,2060.97,2894.60,2711.02,3076.38,600.01,608.37,10.17,0000 0000 0000 0000 000000
2016-04-03 09:04:17,0.20,1.74,0.00,16.01,20.88,25.16,15.01,50.11,1013.20,2060.92,2890.66,2708.29,3073.29,599.83,608.21,10.22,0000 0000 0000 0000 000000
2016-04-03 09:09:19,0.20,1.75,0.00,16.07,20.92,25.20,14.92,49.98,1013.20,2060.61,2886.39,2705.37,3070.09,599.88,608.14,10.27,0000 0000 0000 0000 000000
2016-04-03 09:14:20,0.20,1.76,0.00,15.99,20.95,25.16,14.90,49.97,1013.20,2060.10,2881.97,2702.34,3066.66,599.92,608.41,10.32,0000 0000 0000 0000 000000
2016-04-03 09:19:22,0.23,1.77,0.00,15.93,20.98,25.17,15.00,50.11,1013.20,2060.02,2877.91,2699.39,3063.24,600.05,608.56,10.37,0000 0000 0000 0000 000000
2016-04-03 09:24:23,0.25,1.78,0.00,15.90,21.00,25.22,14.92,50.08,1013.20,2060.00,2873.43,2696.37,3059.84,599.93,608.55,10.42,0000 0000 0000 0000 000000
2016-04-03 09:29:24,0.24,1.80,0.00,15.89,21.02,25.10,14.87,50.02,1013.20,2060.00,2868.92,2693.37,3056.41,599.61,608.25,10.47,0000 0000 0000 0000 000000
2016-04-03 09:34:25,0.23,1.81,0.00,15.95,21.03,25.04,14.97,50.02,1013.20,2060.00,2864.76,2690.56,3053.17,600.20,608.79,10.52,0000 0000 0000 0000 000000
2016-04-03 09:39:27,0.23,1.82,0.00,15.93,21.04,25.03,14.89,50.02,1013.21,2059.98,2860.53,2687.70,3049.93,599.78,608.35,10.57,0000 0000 0000 0000 000000
2016-04-03 09:44:28,0.20,1.83,0.00,15.87,21.04,25.03,15.01,50.04,1013.22,2059.97,2856.58,2685.09,3046.89,599.80,608.49,10.62,0000 0000 0000 0000 000000
2016-04-03 09:49:30,0.18,1.84,0.00,15.84,21.05,25.03,15.05,50.03,1013.23,2059.97,2853.24,2682.88,3044.29,600.37,609.05,10.68,0000 0000 0000 0000 000000
2016-04-03 09:54:31,0.18,1.85,0.00,15.81,21.05,25.03,14.91,50.02,1013.21,2059.97,2850.10,2680.66,3041.82,599.68,608.55,10.73,0000 0000 0000 0000 000000
2016-04-03 09:59:32,0.19,1.86,0.00,15.86,21.04,25.05,14.92,49.99,1013.22,2059.94,2846.67,2678.28,3039.09,599.59,608.31,10.78,0000 0000 0000 0000 000000
2016-04-03 10:04:34,0.18,1.87,0.00,15.88,21.04,25.04,14.98,50.02,1013.21,2059.91,2843.30,2676.01,3036.40,600.02,608.76,10.83,0000 0000 0000 0000 000000
2016-04-03 10:09:35,0.20,1.88,0.00,15.85,21.04,25.01,14.97,49.89,1013.20,2059.86,2839.57,2673.60,3033.67,599.80,608.54,10.88,0000 0000 0000 0000 000000
2016-04-03 10:14:36,0.20,1.89,0.00,15.81,21.02,25.05,15.04,49.89,1013.20,2059.86,2835.89,2671.20,3030.95,600.06,608.86,10.93,0000 0000 0000 0000 000000
2016-04-03 10:19:38,0.20,1.90,0.00,15.79,21.01,25.03,15.02,49.88,1013.20,2059.84,2832.30,2668.77,3028.16,599.97,608.83,10.98,0000 0000 0000 0000 000000
2016-04-03 10:24:39,0.21,1.91,0.00,15.81,20.99,24.96,14.97,49.95,1013.20,2059.95,2828.58,2666.39,3025.47,599.91,608.73,11.03,0000 0000 0000 0000 000000
2016-04-03 10:29:40,0.20,1.92,0.00,15.77,20.97,24.91,15.00,49.90,1013.20,2059.98,2824.87,2664.02,3022.86,600.06,608.89,11.08,0000 0000 0000 0000 000000
2016-04-03 10:34:42,0.13,1.93,0.00,15.69,20.94,24.95,14.99,49.87,1013.20,2059.99,2822.12,2662.25,3020.75,599.85,608.87,11.13,0000 0000 0000 0000 000000
2016-04-03 10:39:43,0.15,1.94,0.00,15.63,20.91,24.92,15.01,49.79,1013.20,2059.98,2819.94,2660.52,3018.70,599.99,609.18,11.18,0000 0000 0000 0000 000000
2016-04-03 10:44:44,0.18,1.95,0.00,15.62,20.88,24.96,14.97,49.80,1013.20,2059.99,2816.57,2658.40,3016.31,599.93,609.17,11.23,0000 0000 0000 0000 000000
2016-04-03 10:49:45,0.17,1.96,0.00,15.63,20.85,24.91,15.02,49.81,1013.20,2059.99,2813.65,2656.45,3014.01,600.16,609.45,11.28,0000 0000 0000 0000 000000
2016-04-03 10:54:47,0.17,1.97,0.00,15.58,20.82,24.89,15.07,49.73,1013.20,2060.00,2810.58,2654.32,3011.61,600.13,609.44,11.33,0000 0000 0000 0000 000000
2016-04-03 10:59:49,0.18,1.97,0.00,15.52,20.78,24.85,15.05,49.69,1013.18,2060.00,2807.38,2652.27,3009.35,600.05,609.46,11.38,0000 0000 0000 0000 000000
2016-04-03 11:04:50,0.14,1.98,0.00,15.48,20.75,24.83,15.03,49.71,1013.14,2060.03,2804.73,2650.59,3007.51,600.18,609.67,11.43,0000 0000 0000 0000 000000
2016-04-03 11:09:51,0.14,1.99,0.00,15.47,20.72,24.78,15.01,49.72,1013.18,2060.10,2802.30,2649.01,3005.75,599.79,609.36,11.48,0000 0000 0000 0000 000000
2016-04-03 11:14:53,0.17,2.00,0.00,15.45,20.68,24.70,15.01,49.71,1013.13,2060.47,2799.84,2647.41,3003.87,599.91,609.43,11.53,0000 0000 0000 0000 000000
2016-04-03 11:19:54,0.23,2.01,0.00,15.40,20.64,24.71,15.05,49.74,1012.95,2060.79,2796.61,2645.29,3001.46,600.14,609.80,11.58,0000 0000 0000 0000 000000
2016-04-03 11:24:56,0.22,2.02,0.00,15.34,20.60,24.66,15.03,49.84,1012.78,2060.95,2792.72,2642.83,2998.68,599.91,609.49,11.63,0000 0000 0000 0000 000000
2016-04-03 11:29:57,0.24,2.03,0.00,15.30,20.56,24.63,14.97,49.74,1012.74,2060.98,2788.62,2640.19,2995.71,599.93,609.62,11.68,0000 0000 0000 0000 000000
2016-04-03 11:34:58,0.28,2.04,0.00,15.32,20.52,24.62,14.99,49.77,1012.71,2060.99,2783.68,2637.09,2992.25,599.88,609.44,11.73,0000 0000 0000 0000 000000
2016-04-03 11:40:00,0.32,2.06,0.00,15.28,20.48,24.55,15.05,49.77,1012.71,2060.99,2778.06,2633.56,2988.26,599.92,609.61,11.78,0000 0000 0000 0000 000000
2016-04-03 11:45:01,0.29,2.08,0.00,15.20,20.44,24.49,15.05,49.70,1012.71,2061.01,2772.57,2630.17,2984.45,600.19,610.08,11.83,0000 0000 0000 0000 000000
2016-04-03 11:50:02,0.32,2.09,0.00,15.17,20.40,24.52,15.01,49.72,1012.71,2061.06,2766.84,2626.65,2980.54,599.76,609.63,11.88,0000 0000 0000 0000 000000
2016-04-03 11:55:04,0.35,2.11,0.00,15.15,20.36,24.43,14.99,49.58,1012.71,2061.58,2761.45,2623.34,2976.74,599.92,609.81,11.93,0000 0000 0000 0000 000000
2016-04-03 12:00:05,0.31,2.13,0.00,15.15,20.32,24.41,15.09,49.83,1012.68,2061.87,2756.20,2620.06,2972.85,600.30,610.20,11.98,0000 0000 0000 0000 000000
2016-04-03 12:05:06,0.26,2.14,0.00,15.08,20.28,24.37,15.06,49.80,1012.63,2061.96,2751.53,2617.07,2969.49,600.17,610.18,12.03,0000 0000 0000 0000 000000
2016-04-03 12:10:08,0.23,2.15,0.00,15.01,20.24,24.34,15.03,49.98,1012.53,2061.99,2747.12,2614.30,2966.42,600.00,610.11,12.08,0000 0000 0000 0000 000000
2016-04-03 12:15:09,0.19,2.16,0.00,14.98,20.20,24.20,15.03,49.95,1012.37,2062.00,2743.69,2612.05,2963.91,599.89,609.97,12.13,0000 0000 0000 0000 000000
2016-04-03 12:20:10,0.16,2.17,0.00,14.97,20.17,24.22,15.07,49.92,1012.26,2062.03,2740.76,2610.15,2961.73,600.50,610.57,12.18,0000 0000 0000 0000 000000
2016-04-03 12:25:12,0.16,2.18,0.00,14.93,20.14,24.18,15.04,49.93,1012.23,2062.15,2738.16,2608.46,2959.79,600.13,610.30,12.23,0000 0000 0000 0000 000000
2016-04-03 12:30:13,0.18,2.19,0.00,14.86,20.10,24.14,15.12,49.93,1012.23,2062.51,2735.55,2606.69,2957.82,599.97,610.20,12.28,0000 0000 0000 0000 000000
2016-04-03 12:35:14,0.19,2.20,0.00,14.83,20.07,24.14,14.99,50.08,1012.22,2062.87,2732.97,2604.95,2955.83,599.99,610.29,12.33,0000 0000 0000 0000 000000
2016-04-03 12:40:16,0.16,2.21,0.00,14.83,20.04,24.09,15.03,50.01,1012.22,2062.97,2730.21,2603.08,2953.74,599.90,610.18,12.38,0000 0000 0000 0000 000000
2016-04-03 12:45:17,0.15,2.22,0.00,14.78,20.01,24.02,15.00,49.91,1012.22,2062.99,2727.61,2601.34,2951.66,599.81,610.20,12.43,0000 0000 0000 0000 000000
2016-04-03 12:50:18,0.16,2.22,0.00,14.70,19.98,24.06,15.10,50.03,1012.22,2062.99,2724.98,2599.54,2949.59,600.18,610.79,12.48,0000 0000 0000 0000 000000
2016-04-03 12:55:19,0.14,2.23,0.00,14.67,19.95,24.02,15.02,49.87,1012.17,2062.99,2723.01,2597.81,2947.53,599.77,610.35,12.53,0000 0000 0000 0000 000000
2016-04-03 13:00:20,0.19,2.24,0.00,14.67,19.92,24.00,15.11,50.02,1012.16,2062.99,2719.89,2595.87,2945.28,600.07,610.74,12.58,0000 0000 0000 0000 000000